Location: Gouy
(50.0008°N, 3.2556°E)
Time: 10:46:04
(UTC+00:00)

Cosmos 1850 Rocket - Pass Details

Date: 23 May 2024
Orbit: 753 x 782 km, 74.0° (Epoch: 14 June)

Event Time Altitude Azimuth Distance (km) Brightness Sun altitude
Exits shadow 01:46:17 20° 194° (SSW) 1,711 5.2 -14.3°
Maximum altitude 01:49:56 76° 111° (ESE) 801 4.1 -14.0°
Drops below altitude 10° 01:55:12 10° 26° (NNE) 2,321 8.0 -13.6°
Sets 01:57:35 0° 25° (NNE) 3,247 9.2 -13.4°
